Wind_Speed
11 11 11 11 11 10 10 10 10 9 10 11 11 13 15 17 17 17 17 18 19 18 17 18 20 22 24 27 30 32 35 37 38 40 42 43 44 45 45 45 44 44 45 46 48 50 52 54 55 57 59 62 64 66 69 71 73 74 76 77 79 80 81 81 81 82 84 87 88 91 95 97 98 100 101 101 103 104 106 107 105 101 100 102 100 95 95
12 12 12 11 11 11 11 11 10 11 12 13 15 17 18 18 18 18 18 19 19 18 19 21 23 25 27 29 31 33 35 37 38 40 41 43 45 45 44 44 43 43 45 46 48 50 52 54 56 59 61 63 66 69 71 73 75 77 78 80 82 83 85 86 86 85 85 87 89 91 94 98 100 101 103 104 105 106 107 108 107 103 101 103 103 98 94
12 12 12 12 12 12 12 11 11 12 14 16 18 18 19 19 20 19 19 20 19 19 21 24 25 26 28 30 32 34 35 36 37 39 41 43 44 44 43 43 43 44 46 48 50 52 53 55 57 60 63 65 68 71 73 75 77 79 81 83 84 86 88 91 92 92 92 93 95 96 98 99 101 104 106 107 107 108 109 111 110 107 103 103 106 103 97
12 12 12 12 13 13 12 11 12 14 15 17 19 19 20 21 21 20 20 20 20 21 24 25 26 27 29 30 32 33 34 35 36 39 41 42 43 43 43 43 44 46 48 49 51 53 54 56 58 61 64 67 69 72 74 77 79 81 84 86 87 89 90 93 95 97 97 98 100 101 103 103 105 106 107 108 109 109 111 113 112 111 107 104 106 106 102
12 13 13 13 14 13 12 12 13 15 17 18 19 20 21 21 21 21 21 21 21 24 25 26 26 28 29 30 30 31 32 34 36 38 40 42 43 42 42 43 44 46 48 49 52 54 56 59 61 63 65 68 70 73 76 79 81 84 86 88 90 91 92 95 97 98 99 100 101 103 105 107 108 109 109 110 111 112 113 114 114 112 111 106 104 104 103
12 13 14 14 14 13 12 13 14 16 18 18 19 21 22 22 21 21 21 22 23 24 25 25 27 27 28 29 29 30 31 33 35 37 39 41 42 42 42 43 44 45 47 49 52 56 59 61 63 64 66 68 71 74 77 80 83 86 88 90 92 93 94 96 98 99 100 102 103 105 107 108 109 111 112 113 114 114 114 116 115 113 112 109 105 103 103
12 13 14 15 14 12 12 13 15 16 18 18 20 22 22 21 20 21 22 22 23 24 24 25 26 26 27 27 27 28 30 32 34 36 39 41 41 42 42 42 43 45 48 51 54 56 59 62 64 65 66 68 71 74 77 81 85 88 90 93 95 96 97 98 99 101 102 103 105 107 108 109 111 112 114 114 115 115 116 117 116 113 112 111 109 106 105
13 14 15 14 13 12 13 15 16 16 17 18 21 22 21 20 20 21 22 22 22 23 23 24 25 25 25 25 26 27 29 31 33 36 38 40 41 41 42 43 44 47 50 53 56 59 61 63 64 66 67 70 73 75 79 82 86 90 92 94 97 99 100 100 101 102 103 104 105 107 109 111 112 113 114 115 115 116 117 118 118 116 113 112 111 109 107
13 14 14 13 12 12 13 15 17 16 16 19 21 22 21 19 19 21 21 21 21 22 22 23 24 24 24 24 25 26 28 30 32 35 37 39 40 41 42 44 46 49 52 55 58 61 63 65 66 68 70 72 75 78 81 84 87 90 93 96 98 100 102 102 103 104 105 106 107 108 109 111 112 114 114 116 116 117 119 121 121 120 119 116 114 112 109
13 13 13 12 11 12 13 15 16 16 16 19 21 21 20 19 19 19 20 20 20 21 22 23 23 23 23 23 24 25 27 28 30 33 36 38 39 41 42 45 47 50 53 56 59 62 64 66 67 70 72 75 78 80 83 86 88 91 93 96 98 101 103 105 106 107 107 108 109 110 112 112 114 116 117 118 119 119 120 123 124 123 122 121 118 115 112
13 13 13 12 11 12 13 15 16 16 18 20 20 19 19 19 18 18 19 19 20 20 21 22 22 22 22 22 24 25 26 27 29 32 35 37 39 40 43 45 48 51 54 57 60 63 65 66 68 71 74 76 78 81 84 86 89 91 93 95 98 102 105 107 109 110 111 111 111 112 114 116 117 119 121 121 122 122 122 124 126 125 123 121 118 116 113
13 13 13 12 11 12 13 14 15 16 19 20 19 18 18 18 18 17 17 18 19 20 20 21 22 22 22 22 23 24 25 25 27 30 33 36 38 40 42 45 48 52 55 58 61 63 65 67 69 72 74 76 78 81 84 86 88 91 94 96 99 102 105 108 111 112 114 115 115 116 118 120 121 122 123 124 125 126 125 126 128 127 125 121 119 116 114
13 13 12 10 10 11 13 14 15 17 19 19 18 17 16 17 16 16 16 18 18 18 19 20 21 21 22 22 23 23 24 24 26 29 32 35 38 39 42 45 48 52 55 59 61 62 64 67 70 72 74 76 78 80 84 87 89 92 95 98 101 104 107 110 112 114 116 117 118 119 120 122 123 124 125 126 128 130 130 130 130 129 128 125 122 119 117
12 12 11 9 9 11 12 13 14 17 18 17 16 16 15 15 15 15 16 17 17 17 19 20 20 21 22 22 22 23 23 24 26 28 31 34 38 39 41 45 49 53 56 59 61 62 64 67 69 71 73 75 78 81 84 88 91 93 97 99 103 106 109 112 114 117 119 120 120 121 121 123 125 127 129 130 132 134 135 135 134 133 131 129 126 123 120
12 12 10 7 8 10 12 13 14 16 17 16 15 14 14 14 13 14 15 16 16 17 18 19 20 21 21 22 22 22 23 25 27 28 31 34 37 39 42 46 51 54 58 60 62 63 65 68 70 72 74 77 80 83 86 89 92 95 98 101 104 107 110 114 117 119 122 123 124 125 126 127 128 131 133 135 136 137 137 137 136 135 134 132 129 126 122
11 11 9 6 7 9 11 12 14 16 16 15 14 14 13 13 12 13 14 14 16 17 18 19 20 20 21 21 21 22 24 26 27 29 31 34 37 40 44 48 52 56 59 61 63 65 67 69 72 75 78 81 84 86 88 91 93 96 99 102 106 109 113 116 119 121 124 126 128 130 131 132 132 134 135 137 138 139 138 137 136 136 136 134 131 127 124
10 10 7 5 7 9 10 12 13 15 16 15 14 13 12 12 12 12 13 14 15 16 18 19 20 20 20 20 21 22 24 26 27 29 31 34 38 42 47 51 54 57 60 62 65 66 68 70 73 77 81 84 87 89 90 92 95 97 100 103 107 111 114 117 120 123 125 127 130 131 133 134 134 135 136 137 138 139 140 140 139 138 138 136 133 129 124
9 8 6 4 7 9 10 11 13 15 15 14 13 13 12 11 11 11 13 14 15 16 18 19 19 20 20 20 21 23 24 26 27 28 31 35 39 43 48 51 55 57 60 63 65 67 68 71 74 78 82 86 88 90 92 94 96 99 101 104 108 112 115 118 121 124 127 129 130 131 132 134 135 136 138 138 139 140 142 143 143 142 140 137 133 129 125
8 7 5 4 7 9 10 11 13 15 15 14 13 13 12 11 10 11 13 14 15 16 18 19 19 19 20 20 22 23 24 25 27 28 32 35 39 44 48 52 55 58 60 62 64 66 69 72 76 80 83 86 89 91 93 96 98 100 103 106 109 112 115 119 123 126 129 131 133 133 134 135 136 138 140 141 142 144 145 145 145 143 141 137 134 131 126
7 7 4 4 8 9 10 12 14 15 15 13 12 12 11 10 10 11 13 14 15 16 18 18 19 20 20 21 22 23 24 25 27 29 32 35 39 44 48 51 54 57 59 61 63 66 69 73 77 81 84 87 90 92 94 97 99 101 104 107 111 114 117 120 124 128 131 134 136 138 139 139 140 141 142 144 146 147 147 147 145 144 142 139 135 131 128
6 6 3 5 9 10 11 12 14 15 14 13 12 11 10 9 10 11 12 13 15 16 17 18 20 20 21 21 22 23 24 26 28 30 33 36 40 43 47 51 54 57 59 61 63 66 70 74 78 81 85 88 90 92 95 97 100 102 104 107 111 115 118 121 125 129 132 135 139 141 142 142 143 144 145 145 146 146 147 146 146 145 143 140 136 132 129
6 5 2 6 9 10 11 13 14 14 14 13 12 10 9 9 10 11 12 13 14 15 17 19 20 20 21 21 22 24 25 27 29 32 35 38 41 44 48 52 56 58 60 62 64 67 72 75 78 82 85 87 90 92 95 97 100 102 104 107 111 115 118 121 124 128 131 135 138 140 141 142 143 144 145 146 146 146 146 146 146 146 145 142 138 134 130
5 5 1 6 9 10 12 13 14 14 13 12 11 10 9 9 9 10 11 12 13 15 17 19 20 20 21 22 23 25 26 29 32 35 37 40 43 47 51 54 57 59 61 63 65 68 73 76 79 82 85 87 90 92 95 98 100 103 105 108 111 114 117 120 123 125 128 131 135 139 142 142 142 143 144 145 145 146 146 147 147 146 145 143 140 135 131
5 4 1 7 10 11 13 14 14 14 13 12 11 9 8 8 8 9 10 11 13 16 17 18 19 20 21 22 24 26 28 31 34 36 38 41 46 50 52 55 57 60 62 64 66 69 73 76 80 82 85 88 91 92 95 99 102 104 106 107 110 113 116 118 121 123 126 129 133 138 142 144 144 144 144 144 145 146 146 147 147 146 145 143 141 136 132
5 4 1 8 11 11 13 14 14 14 13 12 10 8 7 7 8 8 9 11 13 15 17 18 19 20 21 22 24 27 29 32 35 37 40 44 48 51 53 55 58 60 62 64 66 69 73 76 79 82 85 89 91 93 97 100 103 106 107 108 110 112 115 117 120 123 126 129 131 135 139 143 145 145 145 145 145 146 147 147 147 145 144 142 140 137 133
4 4 2 9 11 12 14 14 14 14 13 11 9 8 7 6 7 7 8 11 13 15 16 17 18 20 21 23 25 28 31 33 35 38 42 46 49 51 53 55 57 59 61 64 66 70 73 76 79 82 86 89 91 94 97 100 104 107 109 109 110 112 113 116 119 122 125 128 131 134 137 141 144 145 146 146 147 147 147 147 147 146 145 142 139 136 133
4 4 4 10 12 13 14 15 14 14 13 10 8 7 6 6 6 6 8 10 12 14 15 16 18 20 22 24 27 29 31 34 36 40 44 47 50 52 53 55 57 59 61 64 67 71 74 76 79 82 85 89 92 94 97 99 103 107 108 109 109 111 112 116 119 123 126 130 135 138 141 144 146 147 147 148 148 148 149 149 148 147 146 144 141 137 133
5 4 5 11 13 14 15 15 15 15 13 10 8 6 5 5 5 6 8 10 12 13 14 16 18 20 23 25 27 30 32 35 37 41 45 48 50 52 53 55 57 59 62 65 68 71 74 76 79 81 84 88 92 95 97 99 102 106 107 109 110 112 114 117 121 125 129 133 136 140 143 147 149 150 150 149 149 150 150 150 150 149 148 147 144 140 135
5 4 6 12 14 15 16 16 15 15 13 9 8 6 5 4 4 6 8 10 11 12 13 15 18 20 23 25 28 30 33 36 38 41 45 48 50 52 53 55 57 60 63 66 69 71 73 76 78 81 84 88 91 94 96 98 102 105 106 109 111 113 116 120 122 125 129 133 136 139 143 147 150 152 152 151 151 151 151 151 151 150 150 148 146 142 137
6 5 7 13 15 16 17 16 16 15 13 10 8 6 5 3 3 5 7 9 10 11 12 15 17 20 23 25 28 31 34 37 39 42 45 48 50 52 54 55 58 61 64 66 69 71 74 76 78 81 84 88 91 94 96 98 101 104 106 108 111 113 117 120 123 125 128 132 135 139 142 145 148 151 152 152 152 152 152 152 151 151 150 149 147 143 139
6 5 8 14 16 17 17 17 16 15 13 10 8 7 5 3 3 5 7 8 9 10 12 15 17 20 23 25 29 32 35 37 39 41 45 48 51 53 54 56 59 62 64 67 69 71 74 76 79 82 85 88 91 93 96 98 100 103 105 108 110 113 117 120 123 125 128 131 133 137 140 143 146 149 151 152 152 151 151 152 152 151 150 149 147 144 140
6 6 10 15 17 18 18 18 17 15 13 10 9 7 5 2 2 4 6 7 8 10 12 15 17 20 23 26 29 32 35 37 39 42 45 49 52 54 55 57 60 63 65 67 69 72 74 77 79 82 85 88 90 93 96 98 100 102 105 107 109 113 116 120 123 126 129 131 133 135 138 141 145 148 151 152 153 152 152 151 151 151 150 149 147 144 141
7 7 11 17 19 19 19 18 17 15 13 11 9 7 5 2 1 4 5 6 8 9 12 15 17 20 23 26 29 32 34 36 39 42 46 50 53 54 56 58 61 63 65 67 70 72 74 77 79 82 85 87 90 93 96 97 99 102 105 107 109 112 116 120 124 126 129 131 134 136 139 142 145 148 151 153 153 153 152 151 151 150 150 149 147 144 140
8 9 13 18 20 19 20 19 17 15 13 11 10 8 5 3 2 4 5 6 7 9 12 14 17 20 23 26 29 31 34 36 39 42 46 50 53 55 57 59 62 64 66 68 70 72 75 77 80 82 84 87 90 93 95 97 99 102 104 106 108 111 115 119 122 125 128 130 133 137 140 143 146 148 151 152 153 153 152 152 151 151 150 149 147 145 141
9 10 15 19 21 20 20 19 18 16 14 12 10 8 6 4 3 5 5 6 7 10 12 14 17 20 23 26 29 32 34 36 39 43 46 50 53 56 57 60 62 64 66 68 70 72 75 77 80 82 84 87 90 93 94 96 98 101 103 105 107 110 114 118 121 124 127 130 133 136 140 143 145 147 150 152 153 153 152 152 152 151 151 150 148 146 142
10 11 16 21 21 21 21 20 18 17 14 13 11 9 7 5 5 5 5 6 7 9 11 14 17 20 24 27 30 32 34 36 39 43 46 50 53 55 57 60 62 65 67 68 70 73 75 77 79 82 84 87 90 93 94 96 98 100 102 104 107 111 115 118 121 124 127 130 133 135 138 140 143 146 148 151 153 153 153 153 153 153 152 152 150 148 144
11 13 18 22 22 22 22 21 19 17 15 13 12 10 8 7 6 6 6 7 8 9 11 14 17 20 23 27 29 32 34 36 40 43 46 49 52 55 57 59 62 65 67 68 70 73 75 77 79 82 85 88 91 93 95 96 98 100 102 104 108 113 116 119 121 123 125 128 131 133 136 138 142 145 148 152 154 155 156 155 155 155 154 154 152 150 146
12 14 19 23 23 23 23 22 20 18 16 14 13 11 9 8 7 7 7 7 8 9 11 14 17 20 23 27 29 32 34 37 40 43 46 48 52 55 57 59 61 64 67 68 70 72 75 77 80 82 85 88 91 94 96 96 97 100 102 106 110 114 117 120 123 124 126 128 131 135 137 140 143 146 150 153 156 157 158 157 157 156 156 155 154 151 147
13 15 20 24 25 24 24 23 21 19 17 15 13 12 10 9 8 8 8 8 8 9 12 15 18 21 24 27 30 33 35 38 41 44 46 48 51 54 56 59 61 64 66 68 70 72 75 77 80 83 86 88 91 94 96 97 98 100 103 107 111 115 118 121 125 127 128 131 134 138 141 144 146 149 151 154 156 158 159 159 158 157 157 156 155 152 149
14 16 21 25 26 26 25 24 22 20 17 16 15 13 12 11 10 9 9 9 9 10 13 15 18 21 25 28 31 33 36 38 41 44 46 49 51 54 57 59 61 64 66 68 70 72 75 78 81 83 86 88 91 94 96 98 98 100 104 108 111 115 118 122 125 128 130 132 135 138 142 145 147 150 152 154 156 158 160 160 159 158 158 157 155 153 150
16 18 23 27 27 27 26 25 23 20 19 17 16 14 13 12 12 11 10 10 10 12 14 16 19 22 25 28 31 34 36 39 42 45 47 49 52 55 57 59 62 64 67 68 70 73 76 79 81 83 86 89 91 94 96 98 100 102 104 107 110 114 118 121 125 128 130 132 134 137 141 144 147 149 152 154 156 158 160 161 160 159 159 158 156 154 152
18 20 25 28 29 28 27 26 23 21 20 18 16 15 15 14 14 13 12 11 11 13 15 17 20 23 26 28 31 34 36 39 43 45 47 50 52 55 57 60 63 65 67 69 71 74 77 79 81 84 86 89 92 94 96 98 101 103 105 107 110 113 117 121 124 128 130 132 134 137 140 143 146 148 150 153 156 158 160 161 161 160 160 159 157 155 153
20 22 26 29 30 29 28 27 24 22 21 19 18 17 17 16 16 15 14 13 13 14 16 18 21 24 26 29 31 34 37 40 43 45 47 50 52 55 57 60 63 66 68 70 72 75 77 80 82 84 86 89 92 94 96 99 101 103 105 107 110 113 117 120 124 127 130 133 135 137 139 142 145 147 149 151 154 157 159 161 162 161 161 160 158 157 154
21 24 28 31 31 30 29 27 25 23 22 21 20 19 18 18 18 17 16 15 16 16 18 20 22 24 27 29 32 34 37 40 43 46 48 50 53 55 57 60 63 66 68 70 73 76 78 80 82 84 86 90 93 95 97 98 100 103 106 108 110 113 116 120 123 126 130 132 135 137 139 142 144 147 148 150 152 155 157 159 161 162 161 160 159 157 155
23 26 30 32 32 31 30 27 25 24 23 22 21 20 20 20 20 19 18 18 18 18 19 21 23 25 28 30 32 35 38 41 44 46 48 51 53 55 57 60 63 66 68 71 73 76 79 80 82 84 86 90 93 95 96 98 100 103 106 108 111 113 116 119 122 125 128 131 134 137 139 142 144 146 148 149 151 154 157 159 160 161 161 161 160 158 156
25 28 32 34 34 32 30 28 26 25 24 23 22 22 22 22 21 21 20 20 19 20 21 23 25 27 29 31 33 36 39 42 45 47 49 51 53 55 58 60 63 65 68 71 73 76 79 81 82 84 86 90 93 95 96 98 101 103 106 109 111 113 116 118 121 124 127 130 133 136 139 142 144 146 148 149 151 153 156 159 160 161 162 162 161 160 158
27 30 33 35 34 33 31 29 27 26 25 24 23 23 23 23 23 22 22 21 21 22 23 25 26 29 31 33 35 37 40 42 45 48 50 52 54 56 58 61 63 65 68 71 74 77 79 82 83 84 86 89 93 95 96 98 101 104 107 109 112 114 116 119 121 124 127 129 132 135 139 141 144 146 148 149 151 153 156 158 160 161 162 163 162 161 159
29 32 35 36 35 33 32 30 28 27 26 25 24 24 24 24 24 24 24 23 23 24 25 26 28 30 32 34 36 38 40 43 46 49 51 53 55 56 58 61 63 66 69 72 75 77 80 82 83 85 87 90 93 95 97 99 101 104 107 110 112 114 116 119 121 124 126 129 131 134 137 140 143 145 147 149 151 152 155 157 160 162 163 164 164 162 160
31 34 36 36 35 34 32 30 29 28 27 26 25 26 26 26 26 26 25 25 25 26 27 28 30 32 34 36 38 40 42 44 47 50 52 54 55 57 59 61 63 66 70 73 75 78 80 82 84 85 87 90 93 95 97 99 101 104 107 110 112 114 116 118 121 124 126 128 131 133 136 139 141 144 146 149 151 152 154 157 160 162 163 164 164 163 161
32 35 36 36 35 34 32 31 30 29 28 27 27 27 27 27 27 27 27 27 27 27 29 30 31 33 35 37 39 41 43 45 48 50 52 54 56 58 60 62 64 67 70 73 76 78 81 83 84 86 88 90 93 95 97 100 102 105 107 109 111 114 116 119 121 124 126 128 131 133 135 138 140 143 145 148 150 153 155 158 160 162 163 163 164 163 161
34 36 36 36 35 34 33 31 30 30 29 29 28 28 28 28 29 29 29 28 28 29 30 32 33 34 36 38 40 42 44 46 48 51 53 55 57 59 61 63 65 67 71 74 77 79 81 83 85 87 89 91 93 95 98 100 103 105 107 109 111 113 116 119 122 124 126 128 130 133 135 137 139 142 144 147 150 153 155 157 159 160 162 163 163 163 162
35 36 36 36 36 35 33 32 31 30 30 30 29 29 29 29 30 30 30 30 30 31 32 33 34 35 37 38 41 43 45 48 49 52 54 57 58 60 63 64 66 68 71 75 78 80 82 84 86 88 90 92 94 96 98 101 103 106 107 109 111 113 116 119 121 124 126 128 130 132 135 137 139 141 144 147 149 151 154 156 157 159 161 162 163 163 163
Wind_Direction
84 80 76 71 61 50 41 37 39 49 62 71 76 81 80 81 83 85 83 79 75 74 73 71 69 66 60 55 51 47 45 43 40 37 34 32 31 29 27 25 22 20 18 17 16 15 15 15 15 15 15 14 14 13 12 12 11 10 8 7 6 4 2 2 4 4 2 1 0 359 358 357 357 356 355 355 353 352 351 350 351 352 349 345 346 349 348
82 80 75 65 53 43 40 41 51 65 75 79 81 84 86 88 88 86 82 78 75 75 74 71 67 63 57 53 50 47 45 42 40 37 34 32 30 28 26 24 22 20 19 18 17 17 17 18 17 16 16 16 15 15 14 13 12 11 10 9 7 6 3 2 3 3 3 1 0 0 359 358 358 357 356 356 355 353 352 351 351 352 351 347 345 349 349
82 79 70 58 48 42 43 49 64 76 81 84 87 90 92 91 88 84 80 78 76 75 73 69 65 59 56 52 49 47 44 42 40 37 34 31 29 27 25 24 23 21 20 19 19 19 19 19 18 17 17 16 16 16 15 14 13 12 11 10 9 8 5 3 2 3 3 2 1 1 360 359 358 358 357 357 356 354 352 352 352 352 352 349 346 347 349
79 73 62 53 46 44 48 60 73 82 87 90 93 95 93 89 86 84 81 79 78 74 70 66 61 57 54 51 48 47 44 41 39 37 34 30 27 26 25 25 24 22 21 21 20 19 19 18 18 18 17 17 17 17 16 15 14 13 13 12 10 9 8 5 4 4 3 2 2 1 0 359 359 359 358 357 356 355 353 352 353 352 352 351 348 347 349
73 64 55 49 46 48 56 69 80 87 91 95 97 96 91 88 86 84 82 80 77 73 69 64 59 55 53 50 47 46 43 41 39 36 33 29 27 27 27 26 24 23 22 22 20 19 18 18 18 18 17 17 16 16 16 16 15 14 13 12 11 10 10 7 5 4 4 3 2 2 1 0 360 359 359 358 357 356 354 353 353 352 351 352 351 349 348
67 58 50 46 47 54 66 78 86 90 95 99 99 96 92 89 86 84 84 81 76 72 68 62 57 53 50 48 47 45 42 40 38 35 31 28 27 28 27 25 24 24 23 22 21 19 18 17 17 17 17 17 16 16 17 16 15 15 14 13 12 11 11 9 7 5 5 4 3 3 2 1 0 360 359 359 358 357 355 354 354 353 351 351 351 351 350
62 54 49 46 50 63 77 84 88 93 99 103 100 96 92 90 88 86 84 80 76 71 65 59 54 50 48 48 45 43 41 39 37 34 30 28 28 28 27 25 24 23 23 22 21 20 19 18 17 17 17 17 16 16 17 16 16 15 15 14 13 12 11 10 8 6 6 5 4 3 2 1 1 0 360 360 359 357 355 354 354 354 353 352 352 353 352
58 50 47 48 56 72 85 90 91 95 103 105 101 96 92 90 89 87 83 79 75 69 61 55 51 48 47 46 44 41 39 38 37 34 30 30 29 28 26 24 23 23 22 21 20 19 18 17 17 17 16 16 16 16 16 17 16 16 15 14 13 12 11 10 9 7 6 5 4 3 3 2 1 1 0 360 359 358 355 354 355 354 354 354 354 354 354
58 50 47 51 64 80 90 95 95 99 105 104 100 97 95 92 90 87 83 78 71 64 57 52 50 47 46 45 42 40 38 38 38 34 31 31 29 27 25 23 22 22 21 20 19 17 17 16 16 16 16 15 15 15 16 16 16 15 14 13 12 11 10 9 8 7 6 5 4 3 3 2 1 0 0 360 360 359 356 355 355 355 355 356 355 355 354
59 51 49 57 74 87 95 99 101 105 106 102 98 97 96 95 92 88 83 76 66 59 54 51 48 46 44 43 40 38 37 39 38 34 32 30 28 26 24 23 23 22 20 19 18 17 16 16 16 16 15 15 15 15 15 15 14 13 12 12 11 10 9 8 8 7 6 5 5 3 2 1 1 0 360 360 359 359 358 356 356 357 356 356 356 355 354
57 49 50 62 81 95 100 102 106 110 107 101 98 98 98 98 94 88 81 72 62 56 52 48 46 44 42 40 37 36 37 39 38 34 31 29 26 24 23 23 23 22 20 18 18 17 16 16 16 15 15 14 14 14 13 13 13 12 11 11 10 10 9 8 7 6 5 5 5 3 2 1 1 0 360 359 359 360 359 357 357 358 358 357 356 355 355
55 48 49 63 86 100 102 104 110 112 107 101 99 99 99 99 95 88 78 68 60 54 50 46 43 42 40 37 35 34 36 38 37 33 29 26 24 22 21 22 22 21 19 19 18 17 17 16 16 15 14 14 14 13 12 12 11 11 11 10 10 10 9 8 7 6 5 4 4 4 2 2 1 0 360 359 359 360 0 359 358 358 358 357 357 356 356
52 46 48 66 92 104 106 109 114 113 107 102 101 101 101 100 96 87 75 65 58 52 47 44 42 40 37 34 32 33 36 38 35 31 27 23 21 20 20 21 20 19 19 18 18 18 17 17 15 14 14 14 13 12 11 10 10 11 11 10 10 9 9 8 7 6 6 5 4 4 3 2 1 0 360 359 359 360 0 0 359 359 358 358 358 358 357
49 43 47 67 99 111 112 115 118 115 109 104 102 102 102 101 96 85 72 63 55 48 45 42 40 37 34 31 30 32 37 37 33 29 25 21 19 19 20 20 19 19 18 18 18 17 16 16 15 14 13 13 12 11 10 9 10 10 10 10 10 10 9 8 8 7 6 5 5 4 3 2 1 0 0 360 -0 0 1 1 360 359 358 358 358 359 358
48 42 44 71 109 119 119 121 122 118 111 107 104 104 104 103 95 81 69 60 53 47 43 41 38 34 30 28 30 34 37 35 31 27 23 20 19 20 20 19 18 18 17 17 17 16 15 14 14 13 12 11 10 10 10 9 9 10 10 10 10 10 10 9 8 7 6 5 4 4 3 2 1 1 1 0 0 1 1 1 0 359 359 359 359 359 358
48 40 42 76 119 127 125 126 125 120 113 110 108 107 106 103 92 78 67 58 51 46 42 40 35 30 28 29 33 36 35 31 29 26 22 20 20 21 20 19 18 17 16 16 16 15 14 13 12 12 11 10 9 9 9 9 9 9 10 10 10 10 10 9 9 8 7 6 5 4 3 3 2 2 1 1 1 1 0 1 1 0 360 359 359 359 358
47 40 41 85 130 134 130 130 127 120 115 112 110 108 106 101 90 77 66 56 51 45 41 37 33 30 31 34 36 35 33 30 27 25 22 21 21 20 19 17 17 16 15 15 14 14 14 13 12 11 10 9 8 8 8 8 9 9 10 10 10 10 10 9 9 8 7 6 6 5 4 3 3 2 1 1 1 0 0 0 1 1 0 360 359 359 359
44 39 43 97 138 138 133 133 129 121 117 115 113 111 107 100 89 76 63 55 50 44 39 36 33 32 34 35 35 33 31 29 27 24 21 20 20 19 17 16 15 15 14 14 13 13 13 13 12 11 10 9 8 7 7 7 8 9 9 10 11 10 10 9 9 8 8 7 6 6 4 3 3 2 2 1 1 1 1 1 1 1 1 360 359 359 359
39 36 47 114 145 143 138 136 131 123 119 118 116 113 108 99 85 71 61 55 49 43 39 36 35 34 34 33 33 31 30 28 25 22 20 18 18 17 16 15 15 14 13 13 13 13 13 12 12 10 9 8 7 6 6 6 7 8 9 10 10 10 10 9 9 8 8 7 6 6 5 4 3 3 2 1 1 2 2 1 1 1 1 0 359 359 359
32 32 49 133 151 148 142 139 133 124 121 121 120 116 110 98 80 68 60 54 48 42 39 37 35 34 32 31 30 30 28 25 22 19 17 17 16 16 16 15 14 13 13 13 13 13 12 11 11 10 8 7 6 6 6 6 6 7 8 9 10 10 10 10 9 9 8 7 6 6 6 5 4 3 3 3 2 2 2 1 1 1 0 0 360 359 359
25 27 57 149 156 151 146 144 136 127 123 124 124 120 109 93 77 66 59 52 46 42 38 36 35 32 29 28 28 27 25 21 18 17 16 16 16 16 15 14 13 13 13 13 12 12 11 11 10 9 8 7 6 6 6 6 6 7 8 8 9 10 10 10 10 9 8 8 7 6 6 5 5 4 4 4 3 2 2 1 1 1 0 -0 360 360 359
17 22 71 158 160 153 150 147 138 129 126 128 129 122 106 90 76 65 57 49 43 40 37 34 31 29 27 27 26 24 21 19 17 16 16 16 16 15 13 13 12 12 12 12 12 11 10 10 9 8 7 6 5 5 5 6 6 6 7 8 9 10 10 10 10 9 9 8 7 6 6 6 5 5 4 4 3 2 2 1 1 1 0 360 360 360 359
7 14 92 164 163 156 152 151 141 131 129 133 131 122 106 90 75 64 55 46 39 36 35 31 28 27 27 27 25 22 19 18 17 16 16 16 14 13 12 12 11 12 12 12 11 10 10 9 8 7 6 5 5 5 5 5 5 5 6 7 8 9 9 9 9 9 9 9 8 7 6 6 6 5 5 4 3 2 2 2 2 1 0 360 360 -0 360
356 3 131 168 166 158 156 154 143 134 134 138 134 121 104 89 74 63 51 40 34 33 31 28 26 26 27 26 23 20 18 17 16 16 15 14 13 12 11 11 11 11 11 11 10 10 9 8 7 6 5 4 4 4 4 4 4 5 5 6 7 8 9 9 9 8 9 9 9 7 6 6 6 5 5 4 3 3 2 2 2 1 1 0 360 360 0
346 353 181 174 168 161 160 157 146 138 140 143 136 121 105 88 75 62 46 34 31 29 26 25 25 25 25 23 19 17 16 15 15 15 15 13 12 11 10 10 10 10 11 11 10 9 8 7 6 5 5 4 3 2 3 3 3 4 4 5 6 7 8 8 8 8 8 8 9 8 7 6 6 5 5 4 4 3 3 2 2 1 1 1 0 0 0
333 341 199 179 171 164 164 161 149 143 146 146 137 122 108 93 77 60 40 30 28 25 23 23 23 23 21 19 17 16 16 15 15 15 14 12 10 9 9 9 9 9 10 10 9 8 7 6 5 5 4 3 2 1 2 2 2 3 3 4 5 6 6 7 8 8 8 8 8 8 8 7 6 5 5 4 4 3 3 2 2 1 1 1 1 1 1
317 323 207 183 172 167 168 164 153 148 151 149 140 126 111 97 78 51 34 27 24 21 21 22 21 19 18 17 17 18 17 15 14 14 12 11 9 8 7 8 8 9 9 9 7 7 6 5 4 4 3 2 2 1 1 1 2 2 3 3 4 5 6 6 7 7 8 8 8 8 8 7 7 6 5 5 4 3 3 2 2 2 2 1 1 2 2
305 306 212 185 175 170 171 167 157 153 155 153 144 131 117 102 75 43 28 23 20 19 20 20 18 17 18 18 18 18 17 15 13 12 10 9 7 6 6 6 7 8 8 7 6 5 4 4 3 3 2 2 1 1 1 1 2 2 3 3 3 4 5 6 7 8 8 8 8 8 8 8 7 6 5 5 4 4 3 2 2 2 2 2 2 2 2
296 293 216 188 177 173 174 170 160 157 160 158 150 140 128 110 69 34 22 19 17 18 19 18 17 17 18 18 17 16 15 13 11 10 8 7 6 5 5 5 6 7 6 5 4 3 3 3 2 2 1 1 1 0 0 1 1 2 3 3 3 3 4 5 7 8 9 9 8 8 8 8 7 6 6 5 5 4 3 2 2 2 2 2 2 2 2
288 281 217 191 180 176 177 172 163 161 164 163 158 151 143 118 55 25 17 14 14 16 18 17 16 17 18 17 16 14 12 10 9 7 6 5 5 4 4 5 5 5 4 3 2 2 2 2 1 1 1 1 1 0 0 1 1 2 3 3 3 4 4 5 7 8 9 9 8 8 7 7 7 7 6 5 5 4 4 3 2 2 2 2 2 2 2
283 270 215 192 182 179 180 174 166 165 168 168 164 161 154 126 48 18 10 7 11 15 16 15 16 16 15 14 13 11 8 7 6 5 4 4 4 4 4 4 3 3 2 1 1 1 1 1 1 1 1 1 1 0 0 1 2 2 3 3 4 4 4 5 7 8 9 9 9 8 7 7 7 6 6 6 5 5 4 3 2 2 3 3 2 2 2
276 258 213 192 184 182 182 176 169 168 171 172 172 171 165 141 33 6 0 2 9 14 14 14 15 14 12 10 9 7 5 4 3 3 3 3 3 3 2 2 2 1 1 0 0 0 1 1 1 1 1 1 0 0 0 1 2 2 3 3 4 4 5 6 7 7 8 8 8 8 7 7 7 6 6 6 5 5 4 3 2 2 3 3 3 3 2
269 249 211 192 185 185 184 178 171 171 175 178 179 177 172 164 339 342 348 357 6 10 10 12 13 12 10 8 5 3 2 2 1 1 2 2 2 2 2 1 1 0 360 360 360 360 0 0 0 1 1 1 0 360 0 1 1 2 3 3 4 5 5 6 6 7 7 7 7 7 7 7 7 7 6 6 5 5 4 3 2 2 3 3 3 3 3
264 243 209 193 187 187 187 181 174 175 179 182 184 183 181 197 279 315 332 348 1 4 6 9 10 9 7 5 2 360 360 360 359 360 0 1 1 1 1 0 0 360 359 360 360 360 360 0 0 0 1 0 360 360 0 1 1 2 3 3 4 5 5 5 5 6 6 7 7 7 7 7 7 7 6 6 6 5 4 3 3 3 3 3 3 3 3
261 238 207 193 189 190 189 183 178 179 184 187 187 187 192 215 263 297 315 333 350 358 1 4 5 4 3 2 359 357 357 357 357 357 358 358 359 360 360 360 359 359 359 359 359 359 360 360 0 0 0 360 360 0 1 1 1 2 3 3 4 4 5 5 5 5 6 6 7 7 7 7 7 7 7 6 6 5 4 3 3 3 3 3 3 3 3
258 234 205 193 191 193 191 185 181 183 187 191 192 194 203 225 259 285 301 319 338 350 356 358 359 360 359 358 355 353 353 354 354 355 355 356 357 358 358 358 358 358 359 359 359 359 359 360 0 360 360 359 359 360 0 1 1 2 2 3 3 3 4 4 4 5 5 6 7 7 7 7 7 7 7 6 6 5 5 4 3 3 3 3 3 3 3
255 230 204 193 193 195 192 187 185 187 192 195 196 200 213 233 256 278 294 309 326 340 348 352 354 356 355 352 350 350 351 352 353 353 353 354 355 356 357 357 357 358 358 358 358 359 359 360 360 359 359 359 359 359 360 0 1 1 1 2 2 2 3 3 4 4 5 5 6 7 7 7 7 7 7 7 6 6 5 4 4 3 3 3 3 3 3
254 230 205 194 194 196 194 190 189 191 194 197 199 206 221 239 256 273 288 299 314 328 339 345 349 351 350 348 347 348 350 351 351 351 351 352 354 355 356 356 356 357 357 357 358 358 359 359 359 359 358 358 358 359 359 360 360 0 1 1 1 1 2 2 2 3 4 4 5 6 7 7 7 7 7 7 7 6 6 5 4 4 3 3 3 3 3
251 229 207 197 196 197 195 193 192 194 197 200 204 211 225 241 255 269 280 291 305 318 330 339 344 346 346 345 345 346 348 349 349 350 350 351 352 354 355 355 355 356 357 357 357 357 358 358 358 358 357 357 358 358 358 359 359 359 360 0 0 0 1 1 2 2 3 3 4 5 6 6 7 7 7 7 7 7 6 5 5 4 4 3 3 3 3
249 228 210 200 198 199 198 195 195 197 200 204 209 217 229 241 253 264 274 284 299 313 324 334 340 342 342 343 343 344 345 347 348 348 349 350 351 352 354 354 354 355 356 356 356 356 356 356 357 357 357 357 357 357 357 358 358 358 359 359 359 360 360 1 1 2 2 3 3 4 5 6 6 7 7 7 7 7 6 6 5 5 4 4 3 3 3
248 227 212 204 202 202 200 197 197 200 203 207 212 221 232 243 253 261 268 279 293 308 320 330 335 338 339 340 341 342 343 345 346 347 348 349 350 351 352 353 353 354 354 355 355 355 355 355 355 355 356 356 356 356 356 357 358 358 358 358 359 359 359 0 1 2 2 2 3 3 4 5 5 6 6 6 6 6 6 6 6 5 4 4 3 3 3
245 226 212 206 204 204 202 199 199 202 204 208 214 224 235 246 254 261 266 276 288 302 314 324 330 333 336 337 338 340 341 343 344 346 347 348 349 350 351 351 352 352 353 354 354 355 355 354 355 355 355 355 356 356 356 357 357 358 358 358 358 359 359 360 0 1 2 2 2 3 3 4 4 5 5 6 6 6 6 6 6 5 5 4 4 3 4
237 223 212 207 206 206 203 201 201 203 207 212 218 226 236 246 254 261 267 274 285 297 310 319 325 329 332 334 336 338 339 341 343 345 346 347 348 348 349 350 351 351 352 353 354 354 354 354 354 354 355 355 355 355 356 356 357 357 358 358 358 358 358 359 360 0 1 1 2 2 3 3 4 4 5 5 6 6 6 6 6 6 5 5 4 4 4
229 219 211 207 207 207 205 203 203 205 209 215 221 229 237 246 254 261 267 274 284 295 306 315 321 325 328 330 333 336 337 339 342 344 345 346 347 347 349 349 350 350 351 352 353 353 353 353 354 354 354 355 355 355 355 355 356 356 357 357 358 358 358 358 359 360 0 1 2 2 3 3 3 4 4 5 5 6 6 6 6 6 6 5 4 4 4
224 217 210 207 207 208 207 205 205 207 211 218 225 231 239 247 254 261 268 275 283 293 303 312 317 322 325 328 331 334 336 338 341 342 344 345 346 346 347 348 349 349 350 351 351 352 352 353 353 354 354 354 354 355 355 355 355 356 356 357 357 357 357 357 358 359 360 0 1 2 2 3 3 3 4 4 5 5 6 6 6 6 6 5 5 4 4
221 215 209 207 207 208 207 206 207 209 214 221 228 235 241 248 254 261 267 275 283 292 301 308 314 318 322 325 328 332 334 337 340 341 342 344 345 345 346 347 348 348 349 349 350 351 351 352 353 353 353 353 354 354 354 354 354 355 355 356 356 356 357 357 357 358 359 360 0 1 2 3 3 3 3 4 4 5 5 5 6 6 6 5 5 5 4
219 213 209 207 207 208 207 208 209 212 217 224 230 237 244 250 255 261 268 275 283 291 299 306 311 316 319 323 327 330 333 336 339 340 341 343 343 344 345 346 347 347 348 349 349 350 351 351 352 352 352 352 353 353 353 353 354 354 355 355 355 356 356 356 356 357 357 358 359 0 1 2 2 3 3 3 4 4 5 5 5 5 6 6 5 5 4
217 211 208 207 208 207 207 209 212 215 220 226 233 240 246 252 257 262 268 275 282 290 297 303 309 314 317 321 325 328 332 335 338 339 340 341 342 342 343 345 345 346 347 348 349 349 350 351 351 351 351 351 352 352 353 353 353 353 354 354 355 355 355 355 355 356 356 357 358 359 360 1 2 2 3 3 3 4 4 4 5 5 6 5 5 5 4
214 209 207 207 208 208 208 211 214 217 222 228 235 242 248 253 258 263 269 275 282 289 296 302 307 312 315 319 323 327 331 334 337 338 339 340 340 341 342 343 344 345 346 347 348 349 350 350 350 350 350 350 351 351 352 352 352 352 353 354 354 354 354 354 355 355 356 356 357 358 359 360 1 1 2 2 3 3 3 4 4 5 5 5 5 5 4
211 207 207 208 209 209 210 213 216 219 225 231 237 243 249 254 259 264 270 276 282 289 295 300 305 310 314 318 322 325 329 333 335 337 338 339 339 340 341 342 343 344 345 346 347 348 349 350 350 349 349 349 350 350 351 351 351 351 352 353 353 353 354 354 354 354 355 355 356 357 358 359 360 1 1 2 2 2 3 3 3 4 4 5 5 4 4
208 206 207 209 210 211 212 215 218 222 227 233 239 245 251 256 260 265 271 277 282 288 293 298 304 308 313 317 321 324 327 331 333 335 336 337 338 338 339 340 342 343 344 345 346 347 348 349 349 349 349 348 349 349 350 350 350 350 351 352 352 353 353 353 353 353 354 354 355 356 357 358 359 360 1 1 1 2 2 3 3 3 3 4 4 4 4
207 207 209 211 212 213 215 218 221 225 230 235 241 247 253 257 262 267 272 277 282 287 292 297 302 307 311 315 319 322 326 329 332 334 335 336 337 337 338 339 340 342 343 344 345 346 347 348 348 348 348 348 348 348 348 349 349 350 350 350 351 352 352 352 352 352 353 353 354 355 356 357 358 359 360 1 1 1 1 2 2 2 3 3 3 4 4
Height
10684 10684 10684 10684 10683 10683 10682 10682 10681 10680 10680 10680 10680 10679 10679 10679 10679 10679 10680 10679 10679 10679 10678 10677 10676 10675 10673 10672 10670 10668 10666 10664 10662 10660 10657 10655 10652 10649 10646 10643 10640 10636 10633 10629 10625 10620 10615 10610 10605 10600 10594 10588 10582 10576 10569 10562 10555 10548 10540 10532 10524 10516 10508 10503 10497 10487 10475 10464 10453 10442 10428 10417 10406 10395 10384 10371 10356 10343 10330 10317 10309 10302 10287 10268 10260 10258 10243
10685 10685 10685 10684 10684 10683 10682 10681 10681 10680 10680 10680 10680 10680 10680 10680 10680 10680 10680 10680 10680 10680 10679 10677 10676 10675 10674 10672 10670 10668 10666 10665 10662 10660 10658 10655 10652 10649 10646 10643 10640 10636 10633 10629 10625 10621 10616 10610 10605 10599 10593 10587 10581 10574 10567 10560 10553 10546 10538 10530 10521 10511 10501 10493 10489 10484 10476 10466 10455 10444 10431 10416 10404 10391 10379 10366 10350 10336 10324 10312 10301 10294 10283 10262 10247 10247 10241
10685 10685 10685 10685 10684 10683 10682 10682 10681 10681 10681 10681 10681 10681 10681 10681 10681 10681 10681 10681 10681 10680 10679 10678 10677 10675 10674 10672 10670 10669 10667 10665 10663 10661 10658 10656 10653 10650 10646 10643 10639 10636 10632 10627 10623 10619 10614 10609 10604 10598 10592 10586 10579 10573 10566 10559 10552 10544 10536 10527 10518 10508 10497 10485 10476 10468 10460 10451 10441 10431 10423 10413 10400 10386 10371 10357 10345 10331 10317 10304 10291 10281 10275 10259 10236 10227 10228
10686 10686 10686 10685 10684 10683 10682 10682 10682 10682 10682 10682 10682 10682 10681 10682 10682 10682 10682 10682 10681 10681 10679 10678 10677 10676 10674 10673 10671 10669 10668 10666 10664 10662 10659 10656 10653 10650 10646 10643 10639 10635 10631 10626 10622 10618 10613 10609 10603 10597 10591 10585 10578 10572 10565 10558 10550 10542 10534 10526 10517 10507 10495 10482 10470 10461 10451 10441 10431 10421 10411 10402 10391 10379 10366 10353 10340 10327 10311 10297 10284 10271 10263 10256 10236 10216 10209
10686 10686 10686 10685 10684 10683 10683 10683 10683 10683 10683 10683 10683 10682 10682 10683 10683 10683 10683 10683 10682 10681 10680 10679 10678 10677 10675 10673 10672 10670 10669 10667 10665 10662 10660 10657 10653 10650 10647 10643 10639 10635 10631 10627 10622 10617 10612 10607 10602 10596 10589 10583 10576 10570 10563 10555 10548 10540 10532 10524 10515 10506 10496 10483 10470 10460 10450 10440 10430 10419 10405 10393 10382 10372 10363 10350 10335 10320 10306 10292 10280 10265 10253 10248 10238 10220 10204
10687 10686 10686 10685 10684 10684 10684 10684 10684 10684 10684 10684 10684 10683 10683 10684 10684 10684 10683 10683 10683 10682 10681 10680 10679 10677 10676 10674 10673 10671 10669 10668 10665 10663 10660 10657 10654 10650 10647 10643 10640 10636 10632 10628 10623 10617 10612 10606 10600 10595 10589 10583 10576 10569 10562 10554 10546 10538 10530 10522 10514 10505 10496 10486 10473 10461 10450 10439 10427 10416 10404 10392 10379 10367 10355 10342 10327 10313 10301 10288 10276 10264 10248 10237 10230 10218 10200
10687 10687 10686 10685 10685 10684 10684 10685 10685 10685 10685 10685 10684 10684 10685 10685 10685 10685 10684 10684 10683 10683 10682 10681 10679 10678 10676 10675 10673 10672 10670 10668 10666 10663 10660 10657 10654 10650 10647 10644 10640 10636 10632 10628 10624 10618 10613 10606 10600 10594 10588 10582 10576 10568 10560 10552 10544 10536 10528 10519 10511 10502 10494 10486 10475 10463 10451 10439 10426 10414 10403 10391 10378 10364 10351 10339 10326 10310 10296 10285 10274 10263 10248 10231 10217 10205 10189
10688 10687 10687 10686 10686 10685 10685 10686 10686 10686 10686 10685 10685 10685 10686 10686 10686 10686 10685 10685 10684 10683 10683 10681 10680 10679 10677 10676 10674 10672 10671 10668 10666 10663 10660 10657 10654 10650 10647 10643 10639 10635 10631 10626 10621 10616 10610 10605 10599 10593 10587 10580 10573 10566 10558 10550 10541 10532 10525 10517 10509 10501 10492 10484 10474 10463 10452 10441 10429 10415 10401 10387 10375 10364 10352 10339 10328 10311 10293 10280 10269 10257 10245 10229 10210 10195 10183
10689 10688 10687 10687 10686 10686 10686 10686 10687 10687 10687 10686 10686 10686 10687 10687 10687 10687 10686 10686 10685 10684 10683 10682 10681 10679 10678 10676 10675 10673 10671 10669 10666 10663 10660 10657 10654 10650 10647 10643 10639 10634 10629 10624 10619 10614 10608 10602 10596 10590 10583 10576 10568 10561 10553 10545 10537 10529 10522 10514 10506 10498 10490 10482 10473 10462 10450 10438 10426 10414 10403 10390 10377 10365 10353 10339 10326 10310 10290 10272 10258 10242 10227 10215 10201 10186 10175
10690 10689 10688 10688 10687 10687 10687 10687 10688 10688 10688 10687 10687 10687 10687 10688 10688 10687 10687 10687 10686 10685 10684 10682 10681 10680 10678 10677 10675 10673 10671 10669 10666 10664 10661 10658 10654 10651 10647 10643 10639 10634 10629 10624 10619 10613 10606 10600 10594 10587 10580 10573 10565 10557 10549 10542 10534 10527 10519 10511 10503 10494 10485 10477 10468 10458 10448 10437 10423 10409 10398 10388 10374 10360 10347 10333 10320 10306 10287 10268 10252 10235 10215 10199 10187 10176 10165
10690 10690 10689 10688 10688 10688 10688 10688 10689 10689 10688 10688 10688 10688 10688 10688 10689 10688 10688 10687 10686 10685 10684 10683 10681 10680 10679 10677 10675 10673 10671 10669 10666 10664 10661 10658 10654 10651 10647 10643 10639 10634 10629 10624 10618 10612 10605 10599 10593 10586 10578 10571 10564 10556 10548 10541 10534 10526 10518 10509 10500 10490 10480 10470 10461 10451 10440 10430 10420 10407 10392 10378 10365 10351 10337 10325 10312 10300 10283 10261 10243 10230 10215 10200 10187 10175 10162
10691 10690 10689 10689 10689 10689 10689 10689 10690 10689 10689 10689 10689 10690 10689 10689 10689 10689 10688 10688 10687 10686 10685 10684 10682 10681 10679 10677 10675 10673 10671 10669 10666 10664 10661 10658 10654 10651 10647 10643 10639 10634 10629 10624 10618 10612 10606 10599 10593 10586 10579 10572 10565 10558 10550 10543 10535 10526 10516 10506 10496 10487 10477 10467 10455 10444 10433 10420 10409 10397 10382 10367 10354 10342 10331 10319 10305 10292 10279 10259 10239 10223 10212 10201 10188 10173 10156
10691 10690 10690 10689 10690 10690 10690 10690 10690 10690 10690 10690 10690 10690 10690 10690 10690 10690 10689 10688 10688 10687 10685 10684 10682 10681 10679 10677 10675 10673 10671 10669 10666 10663 10661 10657 10654 10651 10647 10643 10638 10634 10629 10624 10618 10612 10607 10601 10594 10588 10581 10574 10568 10561 10553 10544 10535 10524 10513 10503 10493 10482 10472 10462 10451 10440 10429 10417 10403 10389 10376 10364 10352 10340 10327 10312 10297 10280 10266 10251 10234 10218 10203 10190 10178 10163 10147
10691 10691 10690 10690 10690 10690 10690 10691 10691 10691 10691 10691 10691 10691 10691 10691 10691 10690 10690 10689 10688 10687 10686 10684 10683 10681 10679 10677 10675 10673 10671 10668 10666 10663 10660 10657 10654 10650 10646 10642 10638 10633 10628 10623 10618 10612 10607 10602 10596 10590 10584 10577 10571 10564 10554 10544 10533 10521 10511 10500 10489 10478 10466 10456 10445 10432 10420 10411 10401 10391 10379 10364 10347 10331 10315 10299 10284 10268 10251 10235 10221 10208 10194 10178 10164 10151 10139
10692 10691 10691 10691 10691 10691 10691 10691 10691 10691 10691 10691 10692 10692 10692 10691 10691 10691 10690 10689 10689 10688 10686 10684 10683 10681 10679 10677 10675 10673 10671 10668 10666 10663 10660 10657 10653 10650 10646 10642 10637 10632 10627 10622 10617 10611 10606 10600 10595 10589 10583 10576 10569 10560 10551 10540 10529 10518 10508 10496 10485 10474 10463 10450 10438 10426 10413 10402 10390 10378 10366 10352 10336 10318 10301 10285 10271 10258 10247 10234 10218 10201 10187 10172 10158 10145 10133
10692 10692 10691 10691 10691 10691 10692 10692 10692 10692 10692 10692 10692 10692 10692 10692 10692 10691 10691 10690 10689 10688 10686 10685 10683 10681 10679 10677 10675 10672 10670 10668 10665 10662 10659 10656 10653 10649 10645 10641 10636 10631 10626 10620 10615 10610 10603 10597 10590 10584 10578 10570 10562 10554 10546 10537 10527 10517 10506 10494 10481 10469 10458 10446 10433 10421 10409 10395 10380 10364 10350 10338 10325 10311 10296 10280 10264 10251 10242 10233 10221 10202 10183 10167 10154 10141 10128
10693 10692 10692 10691 10692 10692 10692 10693 10693 10692 10693 10693 10693 10693 10693 10693 10693 10692 10691 10690 10689 10688 10687 10685 10683 10681 10679 10677 10675 10672 10670 10667 10665 10662 10659 10656 10652 10648 10644 10639 10634 10630 10624 10619 10613 10607 10602 10595 10588 10581 10574 10566 10558 10550 10542 10534 10525 10515 10504 10492 10478 10464 10453 10443 10432 10420 10407 10393 10379 10365 10348 10333 10320 10307 10296 10283 10269 10253 10238 10224 10212 10197 10179 10162 10149 10139 10127
10693 10692 10692 10692 10692 10693 10693 10693 10693 10693 10693 10693 10693 10693 10693 10693 10693 10692 10691 10691 10690 10688 10687 10685 10683 10682 10679 10677 10675 10673 10670 10667 10665 10662 10659 10655 10652 10648 10644 10639 10634 10629 10623 10617 10611 10605 10600 10594 10588 10580 10572 10564 10555 10547 10538 10530 10521 10511 10500 10489 10477 10464 10452 10440 10428 10416 10404 10391 10379 10367 10352 10337 10322 10306 10290 10278 10268 10254 10235 10215 10198 10186 10175 10162 10149 10137 10126
10693 10692 10692 10692 10692 10693 10693 10694 10694 10694 10694 10694 10694 10694 10694 10694 10693 10692 10692 10691 10690 10688 10687 10685 10683 10682 10679 10677 10675 10673 10670 10667 10665 10662 10658 10655 10651 10647 10643 10638 10633 10627 10622 10616 10610 10604 10598 10592 10585 10578 10571 10563 10554 10545 10534 10525 10516 10506 10496 10486 10475 10464 10451 10438 10425 10412 10398 10385 10374 10365 10352 10336 10321 10305 10287 10270 10254 10238 10223 10208 10194 10183 10174 10162 10148 10134 10122
10693 10692 10691 10691 10692 10693 10694 10694 10694 10694 10694 10694 10694 10694 10694 10694 10693 10693 10692 10691 10690 10688 10687 10685 10683 10681 10679 10677 10675 10672 10670 10667 10664 10661 10658 10655 10651 10647 10642 10638 10633 10627 10622 10616 10610 10603 10597 10590 10583 10576 10568 10560 10552 10543 10533 10522 10513 10503 10492 10481 10470 10459 10447 10434 10420 10407 10395 10380 10364 10350 10337 10323 10310 10298 10284 10265 10245 10228 10215 10206 10195 10183 10171 10160 10147 10132 10118
10692 10692 10691 10691 10692 10693 10694 10694 10694 10694 10694 10694 10694 10694 10694 10694 10693 10693 10692 10691 10689 10688 10687 10685 10683 10681 10679 10677 10674 10672 10669 10667 10664 10661 10658 10654 10651 10647 10643 10638 10632 10627 10621 10615 10608 10602 10595 10588 10580 10573 10565 10556 10548 10540 10532 10523 10512 10502 10492 10481 10469 10456 10443 10430 10416 10401 10388 10375 10360 10346 10334 10321 10305 10290 10277 10262 10248 10235 10222 10208 10194 10179 10167 10156 10144 10130 10116
10692 10692 10691 10691 10692 10693 10694 10694 10694 10694 10694 10694 10694 10694 10694 10694 10693 10692 10691 10690 10689 10688 10687 10685 10683 10681 10679 10676 10674 10671 10668 10666 10663 10660 10656 10653 10649 10645 10640 10635 10630 10624 10618 10612 10605 10598 10591 10585 10578 10570 10563 10556 10548 10538 10529 10521 10512 10502 10491 10480 10468 10455 10442 10430 10418 10405 10389 10375 10364 10352 10341 10329 10312 10294 10279 10265 10253 10241 10227 10211 10195 10178 10162 10149 10139 10127 10113
10692 10691 10691 10691 10692 10693 10694 10694 10694 10694 10694 10694 10694 10694 10694 10694 10693 10692 10691 10690 10689 10688 10687 10685 10683 10681 10678 10675 10673 10670 10668 10665 10662 10658 10655 10651 10647 10643 10638 10633 10627 10621 10615 10609 10603 10596 10589 10582 10576 10568 10561 10554 10547 10539 10530 10521 10511 10500 10488 10476 10466 10456 10444 10431 10421 10414 10404 10390 10375 10360 10346 10334 10322 10306 10289 10272 10256 10241 10226 10211 10196 10180 10163 10147 10135 10123 10109
10691 10691 10691 10691 10692 10693 10693 10694 10693 10693 10694 10694 10694 10694 10694 10693 10693 10692 10691 10690 10689 10688 10686 10684 10682 10680 10678 10675 10672 10670 10667 10664 10661 10657 10654 10650 10645 10641 10636 10631 10625 10620 10614 10607 10601 10594 10588 10581 10573 10566 10558 10550 10543 10536 10528 10519 10509 10499 10490 10480 10469 10458 10447 10436 10425 10416 10407 10395 10379 10360 10341 10327 10316 10305 10292 10279 10263 10245 10228 10211 10197 10184 10168 10149 10133 10120 10108
10691 10691 10690 10691 10692 10692 10693 10693 10693 10693 10693 10694 10694 10694 10693 10693 10692 10691 10691 10690 10689 10687 10686 10684 10682 10679 10677 10674 10672 10669 10666 10663 10660 10657 10653 10649 10644 10640 10635 10629 10624 10618 10612 10606 10599 10593 10587 10580 10572 10564 10557 10549 10541 10532 10524 10515 10506 10496 10486 10477 10467 10456 10446 10438 10427 10414 10402 10393 10384 10372 10355 10336 10319 10306 10292 10278 10263 10247 10230 10214 10200 10187 10173 10156 10137 10120 10106
10690 10690 10690 10690 10691 10692 10693 10693 10692 10692 10693 10694 10694 10693 10693 10692 10692 10691 10690 10689 10688 10687 10685 10683 10681 10679 10676 10674 10671 10668 10665 10662 10659 10656 10652 10647 10643 10638 10633 10628 10622 10616 10610 10604 10598 10592 10585 10578 10571 10563 10555 10548 10540 10531 10522 10512 10502 10492 10482 10472 10464 10456 10447 10437 10427 10416 10405 10393 10383 10374 10362 10346 10328 10310 10292 10275 10258 10243 10228 10215 10201 10186 10172 10158 10143 10126 10108
10689 10689 10689 10690 10690 10691 10692 10692 10692 10692 10693 10693 10693 10693 10692 10692 10691 10691 10690 10689 10688 10686 10684 10682 10680 10678 10676 10673 10670 10667 10664 10662 10658 10654 10650 10646 10641 10637 10632 10627 10621 10615 10609 10603 10597 10590 10584 10577 10570 10562 10555 10548 10539 10531 10522 10512 10502 10492 10483 10474 10465 10458 10449 10438 10425 10412 10398 10382 10367 10354 10343 10331 10317 10302 10286 10271 10256 10241 10226 10212 10198 10183 10167 10152 10139 10126 10111
10688 10688 10688 10689 10690 10690 10691 10691 10691 10691 10692 10692 10693 10692 10692 10691 10691 10690 10689 10688 10687 10685 10683 10681 10679 10677 10675 10672 10669 10667 10664 10661 10657 10653 10649 10645 10640 10635 10630 10625 10620 10613 10607 10601 10595 10589 10583 10576 10569 10562 10555 10547 10539 10530 10521 10513 10504 10494 10483 10473 10463 10453 10444 10433 10419 10403 10387 10373 10360 10348 10335 10322 10308 10296 10283 10270 10256 10240 10224 10209 10194 10179 10163 10146 10130 10117 10105
10688 10687 10687 10688 10689 10689 10690 10690 10690 10690 10691 10692 10692 10692 10691 10691 10690 10690 10689 10687 10686 10684 10683 10681 10679 10676 10674 10671 10669 10666 10663 10659 10656 10652 10648 10644 10639 10634 10629 10624 10618 10612 10606 10600 10594 10589 10582 10576 10568 10562 10555 10547 10539 10531 10522 10513 10504 10494 10483 10472 10460 10448 10436 10425 10414 10401 10388 10374 10361 10348 10337 10323 10309 10293 10279 10265 10252 10237 10223 10208 10192 10175 10159 10143 10128 10113 10100
10686 10686 10686 10687 10688 10689 10689 10689 10689 10690 10691 10691 10691 10691 10691 10690 10690 10689 10688 10687 10685 10684 10682 10680 10678 10675 10673 10670 10667 10664 10661 10658 10654 10650 10647 10642 10638 10633 10628 10622 10617 10611 10605 10600 10594 10587 10581 10574 10567 10561 10554 10546 10538 10530 10522 10512 10502 10492 10483 10472 10460 10448 10435 10423 10412 10402 10390 10377 10361 10346 10334 10323 10313 10300 10285 10271 10256 10240 10224 10208 10191 10175 10160 10144 10128 10113 10099
10685 10685 10685 10686 10687 10688 10688 10688 10688 10689 10690 10690 10690 10690 10690 10689 10689 10688 10687 10686 10684 10683 10681 10679 10677 10674 10672 10669 10666 10663 10660 10656 10653 10649 10646 10641 10636 10631 10626 10621 10616 10610 10605 10599 10593 10586 10579 10573 10566 10560 10552 10545 10537 10529 10521 10512 10503 10493 10484 10473 10461 10449 10437 10425 10412 10400 10389 10379 10368 10356 10343 10331 10320 10308 10293 10277 10260 10243 10227 10210 10194 10178 10163 10147 10129 10113 10098
10684 10684 10684 10685 10686 10686 10687 10687 10687 10688 10689 10689 10689 10689 10689 10688 10688 10687 10686 10685 10683 10682 10680 10678 10676 10673 10671 10668 10665 10662 10659 10655 10652 10648 10644 10640 10635 10630 10625 10620 10615 10609 10604 10598 10591 10585 10579 10572 10565 10558 10551 10543 10536 10528 10520 10511 10503 10494 10484 10473 10461 10449 10436 10423 10411 10399 10388 10379 10371 10363 10352 10337 10321 10304 10287 10271 10257 10243 10229 10215 10198 10181 10165 10150 10135 10118 10102
10682 10682 10682 10683 10684 10685 10686 10686 10686 10687 10688 10688 10688 10688 10688 10687 10687 10686 10685 10684 10682 10681 10679 10677 10675 10672 10670 10667 10664 10661 10658 10654 10651 10647 10642 10638 10633 10628 10623 10618 10613 10608 10603 10597 10590 10584 10577 10571 10564 10557 10550 10543 10535 10527 10519 10510 10501 10492 10482 10472 10461 10449 10435 10423 10411 10401 10390 10379 10367 10355 10344 10331 10316 10300 10285 10271 10257 10243 10229 10215 10201 10185 10168 10152 10138 10123 10108
10681 10681 10681 10682 10683 10684 10684 10685 10685 10686 10686 10687 10687 10687 10686 10686 10686 10685 10684 10683 10681 10679 10678 10676 10673 10671 10669 10666 10663 10660 10657 10653 10649 10645 10641 10636 10632 10627 10622 10617 10612 10607 10601 10595 10589 10583 10576 10570 10563 10556 10549 10542 10535 10527 10519 10510 10501 10492 10482 10472 10462 10452 10440 10429 10417 10405 10394 10383 10369 10354 10340 10326 10314 10301 10288 10273 10259 10245 10230 10215 10200 10185 10169 10154 10139 10124 10109
10679 10679 10680 10681 10682 10682 10683 10684 10684 10684 10685 10685 10685 10685 10685 10685 10684 10683 10682 10681 10680 10678 10676 10674 10672 10670 10667 10664 10661 10658 10655 10652 10648 10644 10640 10635 10630 10626 10621 10616 10611 10606 10600 10594 10588 10582 10576 10569 10562 10555 10548 10541 10534 10527 10519 10510 10501 10492 10483 10474 10465 10456 10447 10436 10423 10409 10396 10383 10369 10354 10339 10326 10314 10302 10290 10276 10262 10248 10233 10217 10200 10185 10169 10154 10139 10123 10108
10677 10677 10678 10679 10680 10681 10682 10682 10682 10683 10683 10684 10684 10684 10684 10683 10683 10682 10681 10680 10678 10677 10675 10673 10671 10668 10666 10663 10660 10657 10653 10650 10646 10642 10638 10633 10629 10624 10619 10614 10609 10604 10598 10593 10587 10581 10574 10568 10561 10554 10547 10540 10532 10525 10517 10509 10500 10491 10482 10473 10464 10454 10444 10433 10422 10409 10396 10382 10370 10358 10346 10334 10322 10309 10295 10279 10264 10248 10232 10215 10198 10182 10166 10150 10134 10120 10106
10675 10675 10676 10677 10678 10679 10680 10680 10680 10681 10681 10682 10682 10682 10682 10682 10681 10680 10680 10678 10677 10675 10673 10671 10669 10667 10665 10662 10659 10656 10652 10649 10645 10641 10637 10632 10628 10622 10618 10613 10608 10602 10597 10592 10586 10579 10572 10566 10559 10552 10545 10537 10530 10522 10514 10506 10497 10489 10480 10471 10461 10450 10440 10429 10420 10410 10400 10390 10379 10370 10358 10344 10328 10311 10294 10277 10260 10243 10226 10210 10193 10176 10159 10144 10131 10117 10104
10673 10674 10674 10675 10676 10677 10678 10678 10679 10679 10680 10680 10680 10681 10680 10680 10680 10679 10678 10677 10675 10674 10672 10670 10668 10666 10663 10660 10657 10654 10651 10647 10644 10640 10635 10631 10626 10621 10616 10611 10607 10601 10596 10590 10584 10577 10571 10564 10558 10550 10543 10535 10527 10519 10511 10503 10495 10486 10476 10466 10455 10444 10434 10424 10413 10404 10395 10385 10374 10362 10350 10336 10321 10305 10289 10271 10254 10237 10222 10207 10191 10175 10159 10144 10130 10117 10104
10671 10672 10672 10673 10674 10675 10676 10676 10676 10677 10678 10678 10678 10679 10679 10678 10678 10677 10676 10675 10674 10672 10670 10668 10666 10664 10661 10659 10655 10652 10649 10646 10642 10638 10634 10629 10625 10620 10616 10610 10605 10600 10594 10588 10582 10576 10570 10563 10556 10548 10541 10533 10525 10517 10509 10501 10492 10483 10472 10461 10450 10440 10429 10419 10407 10395 10382 10370 10357 10344 10332 10320 10307 10294 10281 10268 10253 10238 10223 10208 10192 10177 10161 10146 10132 10118 10105
10669 10669 10670 10671 10672 10672 10673 10674 10674 10675 10676 10676 10677 10677 10677 10677 10676 10675 10674 10673 10672 10670 10668 10666 10664 10662 10659 10657 10654 10651 10647 10644 10640 10636 10632 10627 10623 10618 10614 10609 10604 10598 10593 10587 10581 10575 10568 10561 10554 10546 10539 10531 10523 10514 10506 10498 10489 10479 10468 10458 10447 10437 10426 10415 10403 10391 10378 10365 10352 10340 10328 10316 10303 10290 10277 10264 10252 10239 10224 10208 10192 10177 10163 10148 10134 10120 10105
10666 10667 10668 10669 10669 10670 10671 10671 10672 10673 10673 10674 10675 10675 10675 10675 10674 10673 10672 10671 10670 10668 10666 10664 10662 10660 10657 10655 10652 10649 10645 10642 10638 10634 10630 10625 10621 10616 10611 10607 10602 10597 10591 10586 10579 10572 10565 10558 10551 10544 10537 10529 10521 10513 10504 10495 10486 10476 10466 10456 10446 10436 10425 10413 10402 10390 10379 10367 10354 10341 10329 10316 10304 10291 10277 10264 10251 10237 10224 10209 10195 10180 10165 10150 10136 10121 10106
10663 10664 10665 10666 10667 10668 10668 10669 10670 10670 10671 10672 10673 10673 10673 10673 10672 10671 10670 10669 10667 10666 10664 10662 10660 10658 10656 10653 10650 10647 10644 10640 10636 10632 10628 10623 10619 10614 10609 10604 10599 10594 10589 10583 10576 10570 10563 10556 10549 10542 10534 10526 10518 10510 10501 10492 10483 10474 10465 10455 10445 10435 10424 10413 10401 10390 10379 10367 10354 10342 10328 10316 10304 10292 10280 10267 10252 10237 10223 10210 10197 10183 10167 10152 10137 10123 10108
10659 10660 10662 10663 10664 10665 10666 10667 10667 10668 10669 10670 10670 10671 10670 10670 10669 10669 10668 10667 10665 10663 10662 10660 10658 10656 10654 10651 10648 10645 10642 10639 10635 10631 10626 10622 10617 10612 10607 10602 10596 10591 10585 10579 10573 10567 10561 10554 10546 10539 10531 10524 10515 10507 10498 10489 10480 10472 10463 10454 10444 10433 10422 10411 10400 10389 10377 10365 10353 10341 10328 10316 10304 10293 10281 10269 10256 10243 10228 10214 10199 10184 10168 10154 10139 10125 10110
10656 10657 10659 10660 10662 10663 10664 10664 10665 10666 10667 10667 10668 10668 10668 10667 10667 10666 10665 10664 10662 10661 10659 10658 10656 10654 10651 10649 10646 10643 10640 10636 10633 10629 10624 10620 10615 10610 10605 10600 10594 10588 10582 10576 10570 10564 10558 10551 10544 10536 10528 10520 10512 10504 10496 10488 10479 10471 10462 10452 10442 10432 10421 10410 10400 10389 10378 10367 10355 10343 10331 10319 10307 10294 10282 10271 10259 10246 10233 10219 10203 10188 10173 10158 10142 10127 10113
10652 10654 10655 10657 10659 10660 10661 10662 10663 10663 10664 10665 10665 10665 10665 10665 10664 10664 10662 10661 10660 10658 10657 10655 10653 10651 10649 10646 10644 10641 10638 10634 10630 10626 10622 10617 10612 10607 10603 10597 10592 10586 10580 10574 10569 10562 10555 10548 10541 10534 10526 10518 10510 10502 10494 10486 10478 10469 10460 10451 10441 10431 10421 10411 10401 10391 10380 10368 10357 10345 10332 10320 10307 10295 10283 10271 10258 10245 10233 10220 10206 10192 10177 10162 10147 10131 10117
10649 10650 10652 10654 10656 10657 10659 10660 10660 10661 10661 10662 10662 10662 10662 10662 10661 10661 10660 10658 10657 10655 10654 10652 10650 10648 10646 10644 10641 10638 10635 10631 10627 10623 10619 10614 10610 10605 10600 10595 10590 10584 10578 10572 10567 10560 10553 10546 10538 10531 10523 10516 10508 10500 10492 10484 10476 10467 10459 10450 10440 10431 10421 10411 10401 10390 10379 10368 10357 10345 10332 10319 10306 10294 10282 10270 10257 10245 10231 10218 10205 10192 10177 10162 10147 10132 10118
10645 10647 10649 10651 10653 10655 10656 10657 10657 10658 10658 10659 10659 10660 10659 10659 10659 10658 10656 10655 10654 10652 10651 10649 10647 10645 10643 10640 10638 10635 10632 10628 10624 10620 10616 10611 10607 10602 10597 10592 10587 10582 10576 10570 10563 10557 10550 10542 10535 10528 10521 10514 10506 10498 10490 10482 10474 10465 10457 10448 10439 10429 10420 10410 10400 10390 10379 10368 10357 10344 10332 10319 10306 10294 10281 10269 10257 10244 10231 10218 10206 10191 10176 10161 10147 10133 10120
10642 10644 10646 10648 10650 10652 10653 10654 10654 10655 10655 10656 10657 10657 10656 10656 10655 10655 10653 10652 10651 10650 10648 10646 10644 10642 10640 10637 10634 10632 10629 10625 10621 10617 10613 10608 10604 10599 10594 10589 10584 10578 10572 10566 10559 10553 10546 10539 10532 10525 10518 10511 10504 10496 10488 10480 10472 10463 10455 10446 10437 10428 10419 10409 10400 10390 10379 10368 10357 10345 10333 10320 10307 10294 10281 10268 10256 10244 10232 10219 10205 10191 10176 10162 10149 10137 10123
10639 10641 10643 10645 10647 10649 10650 10651 10651 10652 10653 10653 10654 10654 10653 10653 10652 10651 10650 10649 10648 10646 10645 10643 10641 10639 10636 10634 10631 10628 10625 10621 10617 10613 10609 10605 10601 10596 10591 10586 10581 10575 10569 10563 10556 10550 10543 10536 10529 10522 10515 10508 10501 10493 10485 10477 10469 10461 10453 10444 10436 10427 10418 10409 10399 10389 10378 10367 10356 10345 10333 10321 10308 10295 10282 10269 10258 10246 10233 10218 10202 10188 10176 10164 10151 10139 10126
10636 10638 10640 10643 10644 10646 10647 10648 10648 10649 10650 10650 10651 10651 10650 10650 10649 10648 10647 10646 10645 10643 10641 10639 10637 10635 10633 10630 10627 10624 10621 10617 10614 10610 10606 10602 10597 10593 10588 10583 10577 10572 10566 10559 10552 10546 10539 10533 10526 10519 10512 10505 10498 10490 10482 10474 10466 10458 10450 10442 10434 10425 10416 10407 10398 10387 10377 10366 10355 10345 10333 10321 10309 10297 10284 10271 10258 10243 10229 10214 10201 10188 10177 10165 10154 10141 10128
10634 10636 10638 10640 10642 10643 10644 10645 10645 10646 10647 10647 10648 10647 10647 10647 10646 10645 10644 10643 10641 10640 10638 10636 10634 10632 10629 10626 10623 10620 10617 10613 10610 10606 10602 10598 10594 10589 10584 10579 10574 10568 10562 10555 10549 10542 10536 10530 10523 10516 10509 10502 10494 10487 10479 10472 10464 10456 10448 10440 10431 10423 10414 10405 10395 10385 10375 10365 10354 10343 10332 10320 10309 10296 10283 10269 10255 10241 10228 10216 10205 10193 10180 10168 10156 10144 10130
10632 10634 10636 10637 10639 10640 10641 10642 10642 10643 10644 10644 10644 10644 10644 10643 10643 10642 10640 10639 10638 10636 10634 10632 10630 10628 10626 10623 10620 10617 10613 10609 10606 10602 10598 10593 10589 10585 10580 10575 10570 10564 10558 10552 10545 10539 10533 10526 10520 10513 10506 10499 10491 10484 10476 10469 10461 10453 10445 10437 10428 10420 10412 10403 10393 10384 10374 10364 10353 10342 10331 10320 10307 10294 10281 10269 10256 10245 10235 10224 10212 10198 10184 10169 10156 10143 10130